Regional Weather Roundup
Issued by NWS New Orleans/Baton Rouge, LA

Home | Current Version | Previous Version | Text Only | Print | Product List | Glossary On
Versions: 1 2 3 4 5 6 7 8 9 10 11 12 13 14 15 16 17 18 19 20 21 22 23 24 25 26 27 28 29 30 31 32 33 34 35 36 37 38 39 40 41 42 43 44 45 46 47 48 49 50
000
ASUS44 KLIX 282010
RWRLIX
NEW ORLEANS REGIONAL WEATHER ROUNDUP
NATIONAL WEATHER SERVICE NEW ORLEANS LA
300 PM CDT MON JUL 28 2014

NOTE: "FAIR" INDICATES FEW OR NO CLOUDS BELOW 12,000 FEET WITH NO
      SIGNIFICANT WEATHER AND/OR OBSTRUCTIONS TO VISIBILITY.
      SKY/WX - SKY CONDITION AND SIGNIFICANT WEATHER.
      TMP - AIR TEMPERATURE.     DP    - DEWPOINT TEMPERATURE.
      RH  - RELATIVE HUMIDITY.   PRES  - PRESSURE.
      HI  - HEAT INDEX.          WCI   - WIND CHILL INDEX.

*  THESE STATIONS ARE NOT NWS OR FAA STATIONS AND ARE NOT UNDER
   NWS QUALITY CONTROL.

LAZ038-040-048-061>063-065>067-069-282100-
SOUTHEAST LOUISIANA

CITY           SKY/WX    TMP DP  RH WIND       PRES   REMARKS
N.O. AUDUBON     N/A     96  75  51 MISG        N/A  HX 108
N.O. INTL ARPT PTSUNNY   92  74  55 W14       30.02F HX 101
N.O. LAKEFRONT MOSUNNY   91  77  63 NW14      30.03F HX 104
N.O. DOWNTOWN* CLOUDY    95  72  46 W7        30.03F HX 103
SLIDELL        TSTM      81  75  82 SW6       30.03R
BATON ROUGE    PTSUNNY   92  77  61 W13       30.04F HX 105
BOOTHVILLE     SUNNY     89  76  65 W13       30.05F HX 100
BELLE CHASSE   PTSUNNY   93  72  50 W8        30.02F HX 101
BOGALUSA*        N/A     92  75  56 W8        30.03F HX 103
GALLIANO*      NOT AVBL
NEW ROADS*       N/A     91  77  62 W8        30.04F HX 104
GONZALES*        N/A     89  78  71 NW6       30.04S HX 103
HAMMOND*       PTSUNNY   95  72  46 NW12      30.04F HX 103
HOUMA*         MOSUNNY   93  72  49 W6        30.04F HX 100
PORT FOURCHON* NOT AVBL

$$

MSZ070-080>082-282100-
SOUTHERN MISSISSIPPI

CITY           SKY/WX    TMP DP  RH WIND       PRES   REMARKS
MCCOMB         PTSUNNY   89  75  63 W9        30.03F HX  99
GULFPORT       MOSUNNY   97  73  45 W14       29.98F HX 107
BILOXI         MOSUNNY   90  80  71 SW17      29.98F HX 107
PASCAGOULA     MOSUNNY   90  78  68 W7G17     29.98F HX 104
STENNIS ARPT*  MOSUNNY  N/A N/A N/A N5        30.00F

$$

COASTAL OBSERVATIONS
LAKE AND NEARSHORE STATIONS

STATION/POSITION TIME  TEMP    WIND        PRES    WAVE
                       AIR SEA DIR/SP/G            HT/PER
                 (UTC) (F)     (DEG/KT/KT) (MB)    (FT/S)
PASCAGOULA       2000   88     240/ 16/ 19 1015.1
WAVELAND YACHT   2000   89     330/  8/ 14 1015.5
GRAND ISLE       2000   88 87  260/ 12/ 14 1018.3
SOUTHWEST PASS   2000   87 85  270/ 16/ 19 1018.3
NEW CANAL        2000   91 86  310/  5/  8 1017.3
SHELL BEACH      2000   90 83  220/  8/ 13 1016.4

OFFSHORE STATIONS

STATION/POSITION TIME  TEMP    WIND        PRES    WAVE
                       AIR SEA DIR/SP/G            HT/PER
                 (UTC) (F)     (DEG/KT/KT) (MB)    (FT/S)
64 S DAUPHIN ISL 1854   85 86  280/ 16/ 17 1017.4

$$



USA.gov is the U.S. government's official web portal to all federal, state and local government web resources and services.